User: anonymous   Login
Location: Camp Creek
(33.9000°N, 111.8167°W)
Time: 10:50:24
(UTC-07:00)
Language:

Cosmos 1656 - Orbit

View from above orbital plane
View from above orbital plane
View from above satellite
View from above satellite

Ground track
Ground track

The orbit data is extracted from the following two-line orbital elements,

1 15755U 85042A   14327.04788081 -.00000164  00000-0 -54220-4 0  9085
2 15755 071.1107 177.5588 0033537 064.8801 295.5798 14.20320026527628
Epoch (UTC): 23 November 2014 01:08:56
Eccentricity: 0.0033537
inclination: 71.1107°
perigee height: 800 km
apogee height: 848 km
right ascension of ascending node: 177.5588°
argument of perigee: 64.8801°
revolutions per day: 14.20320026
mean anomaly at epoch: 295.5798°
orbit number at epoch: 52762

The dashed part of the orbit path shows where the satellite is in the earth's shadow,  

DLR